Regional Weather Roundup
Issued by NWS

Home | Current Version | Previous Version | Text Only | Print | Product List | Glossary Off
Versions: 1 2 3 4 5 6 7 8 9 10 11 12 13 14 15 16 17 18 19 20 21 22 23 24 25 26 27 28 29 30 31 32 33 34 35 36 37 38 39 40 41 42 43 44 45 46 47 48 49 50

000
ASUS43 KLOT 162204
RWRIL

ILLINOIS REGIONAL WEATHER ROUNDUP
NATIONAL WEATHER SERVICE CHICAGO/ROMEOVILLE IL
500 PM CDT WED AUG 16 2017

NOTE: "FAIR" INDICATES FEW OR NO CLOUDS BELOW 12,000 FEET WITH NO
SIGNIFICANT WEATHER AND/OR OBSTRUCTIONS TO VISIBILITY.

* THESE STATIONS ARE NOT UNDER NWS QUALITY CONTROL. THEY ALSO MAY NOT
  REPORT WEATHER SUCH AS PRECIPITATION OR FOG.

ILZ001-002-007-009-015-016-024-162300-
NORTHWEST ILLINOIS

CITY           SKY/WX    TMP DP  RH WIND       PRES   REMARKS
MOLINE         CLOUDY    84  71  65 S12       29.80R HX  89
SAVANNA*       CLOUDY    78  74  88 SE8       29.82S HX  80
$$

ILZ003-004-008-010-011-017-018-162300-
NORTH CENTRAL ILLINOIS

CITY           SKY/WX    TMP DP  RH WIND       PRES   REMARKS
ROCKFORD       LGT RAIN  77  72  84 SE15G23   29.88F
FREEPORT*      CLOUDY    76  73  92 SE13G21   29.87F
ROCHELLE*      CLOUDY    76  73  90 SE13G20   29.87F
PERU*          SUNNY     82  71  68 S13       29.85F HX  86
$$

ILZ005-006-012>014-019>023-162300-
NORTHEAST ILLINOIS

CITY           SKY/WX    TMP DP  RH WIND       PRES   REMARKS
CHICAGO-OHARE  LGT RAIN  83  69  62 S18G26    29.89R HX  86
CHICAGO-MIDWAY LGT RAIN  84  70  62 S14       29.90R HX  88
AURORA         HVY RAIN  73  72  96 SE13G20   29.91R VSB 1/2
LANSING*       RAIN      81  70  69 SW9       29.91S HX  84
JOLIET*        RAIN      74  71  92 E7        29.90F
WAUKEGAN       SUNNY     77  70  79 E12       29.89F
DUPAGE AIRPORT LGT RAIN  74  72  93 S21G32    29.92R FOG
KANKAKEE*      CLOUDY    81  73  76 SW7       29.92S HX  85
WHEELING       PTSUNNY   81  71  71 E9        29.90F HX  85
MORRIS*        CLOUDY    76  72  88 E9        29.88F
NORTHERLY ISL    N/A     76  70  82 SE5         N/A
$$

LMZ740>746-162300-
SOUTHERN LAKE MICHIGAN

STATION/POSITION SKY/WX   TEMP    WIND        PRES    VSBY  WAVE
                          AIR SEA DIR/SP/G                  HT/PER
                          (F)     (DEG/KT/KT) (MB)    (MI)  (FT/S)
SOUTHERN BUOY              73 73   50/  8/  8 1013.6          1
WILMETTE HARBOR            75 74   90/ 12/ 14   N/A           2/ 2
HARRISON CRIB              77     100/ 15/ 16   N/A
CALUMET HARBOR             86     170/ 10/ 13 1012.0S
BURNS HARBOR               87     190/ 11/ 15 1013.2S
MICHIGAN CITY              85     140/  9/ 11   N/A
MICHIGAN CITY 6N           81 76  170/  6/ 10   N/A           1/ 3
ST. JOSEPH                 77 75   60/  6/  8 1012.7F         1
$$

ILZ025>027-034>036-040-047-049-050-058-095>099-162300-
WEST-CENTRAL ILLINOIS

CITY           SKY/WX    TMP DP  RH WIND       PRES   REMARKS
QUINCY         LGT RAIN  79  74  84 S9        29.80F HX  82
GALESBURG*     MOSUNNY   81  71  71 S9G25     29.82R HX  85
MACOMB*        CLOUDY    81  72  73 S12G17    29.84R HX  85
PITTSFIELD*    TSTM      78  76  92 S7        29.84S HX  81
$$

ILZ028>032-037-038-041>044-048-051>054-059>061-162300-
CENTRAL ILLINOIS

CITY           SKY/WX    TMP DP  RH WIND       PRES   REMARKS
PONTIAC        CLOUDY    82  78  85 SE14      29.88F HX  91
BLOOMINGTON    CLOUDY    80  73  79 S16       29.88F HX  84
DECATUR        CLOUDY    80  74  81 S14       29.89F HX  85
PEORIA         CLOUDY    83  74  74 S15       29.83F HX  89
LACON*         CLOUDY    84  73  69 S15       29.82F HX  91
LINCOLN*       MOSUNNY   81  76  84 S14       29.86F HX  87
SPRINGFIELD    PTSUNNY   83  75  77 SE14G21   29.85F HX  90
TAYLORVILLE    MOSUNNY   82  76  82 S8        29.88F HX  88
$$

ILZ033-039-045-046-055>057-062-063-162300-
EAST-CENTRAL ILLINOIS

CITY           SKY/WX    TMP DP  RH WIND       PRES   REMARKS
CHAMPAIGN      CLOUDY    81  74  79 S10       29.91F HX  86
RANTOUL*       CLOUDY    83  76  79 S10       29.91F HX  91
MATTOON        CLOUDY    81  77  88 S9        29.91F HX  88
PARIS*         CLOUDY    83  74  75 S10       29.94S HX  89
$$

ILZ079-100>102-162300-
SOUTHWEST ILLINOIS

CITY           SKY/WX    TMP DP  RH WIND       PRES   REMARKS
BELLEVILLE     TSTM      81  77  89 W18G35    29.95R VSB 3/4 HX  88
CAHOKIA*       TSTM      76  71  85 S8G21     29.94R
SPARTA*        CLOUDY    84  75  74 S5        29.92S HX  92
$$

ILZ064>066-069>071-074>076-080>082-084>086-088>090-092>094-162300-
SOUTH-CENTRAL ILLINOIS

CITY           SKY/WX    TMP DP  RH WIND       PRES   REMARKS
CARBONDALE     PTSUNNY   85  74  69 S9        29.92R HX  92
CAIRO*         SUNNY     87  77  73 S8        29.94S HX  99
EFFINGHAM*     CLOUDY    84  77  80 SE10      29.92F HX  94
MARION         PTSUNNY   88  73  62 S12       29.93R HX  96
MT. VERNON     CLOUDY    88  77  69 S6        29.92S HX 100
CENTRALIA*     CLOUDY    87  76  70 S9        29.91S HX  97
SALEM*         PTSUNNY   87  73  63 S9        29.91S HX  95
METROPOLIS*    RAIN      91  75  59 SW10G16   29.94S HX 101
$$

ILZ067-068-072-073-078-083-087-091-162300-
SOUTHEAST ILLINOIS

CITY           SKY/WX    TMP DP  RH WIND       PRES   REMARKS
LAWRENCEVILLE  CLOUDY    86  75  69 S6        29.94S HX  95
FLORA*         CLOUDY    88  75  66 S10       29.92S HX  98
FAIRFIELD*     CLOUDY    85  77  76 SE3       29.92S HX  96
HARRISBURG*    SUNNY     90  74  60 S7        29.92S HX  99
ROBINSON*      CLOUDY    82  74  76 S5        29.95R HX  89
CARMI*         CLOUDY    86  78  77 SE3       29.92R HX  99
$$

ABBREVIATIONS USED IN REMARKS
   TC - TEMPERATURE IN CELSIUS
  WCI - WIND CHILL INDEX
   HX - HEAT INDEX
  VSB - VISIBILITY
$$





USA.gov is the U.S. government's official web portal to all federal, state and local government web resources and services.